GW3700 Weather Reports


Display with metric or nautical units.
time (UTC)temp
F
wind
direction
speed
MPH
gust
MPH
rain 1hr
in
rain 24hr
in
rain mn
in
humidity
%
barometer
mb
20260504033045 65 187 0.0 2.0 0.00 0.00 0.00 76 1011.4
20260504031541 65 167 0.0 3.0 0.00 0.00 0.00 73 1011.7
20260504030038 65 165 1.0 4.0 0.00 0.00 0.00 77 1011.9
20260504024534 64 173 2.0 6.0 0.00 0.00 0.00 77 1012.1
20260504023033 64 228 3.0 7.0 0.00 0.00 0.00 79 1012.3
20260504021531 64 206 4.0 7.0 0.00 0.00 0.00 79 1012.4
20260504020029 63 226 4.0 9.0 0.00 0.00 0.00 80 1012.8
20260504014528 63 226 5.0 12.0 0.00 0.00 0.00 78 1013.0
20260504013025 63 209 4.0 9.0 0.00 0.00 0.00 76 1013.4
20260504011524 63 240 4.0 11.0 0.00 0.00 0.00 78 1013.5
20260504010022 63 202 2.0 7.0 0.00 0.00 0.00 79 1013.6
20260504004521 62 238 3.0 7.0 0.00 0.00 0.00 82 1013.7
20260504003014 61 224 3.0 7.0 0.00 0.00 0.00 88 1013.7
20260504001511 61 217 1.0 4.0 0.00 0.00 0.00 96 1013.8
20260504000009 59 247 0.0 5.0 0.00 0.00 0.00 97 1013.9
20260503234509 58 252 1.0 4.0 0.00 0.00 0.00 98 1014.0
20260503233008 58 271 1.0 5.0 0.00 0.00 0.00 98 1014.2
20260503231507 59 245 1.0 6.0 0.00 0.00 0.00 98 1014.2
20260503230006 59 278 1.0 6.0 0.00 0.00 0.00 99 1014.3
20260503224507 59 265 3.0 7.0 0.00 0.00 0.00 99 1014.2
20260503223005 59 266 2.0 6.0 0.00 0.00 0.00 99 1013.9
20260503221504 60 284 2.0 5.0 0.00 0.00 0.00 99 1013.8
20260503220004 59 283 1.0 4.0 0.00 0.00 0.00 99 1013.7
20260503214503 59 272 1.0 3.0 0.00 0.00 0.00 99 1013.5
20260503213002 59 258 1.0 4.0 0.00 0.00 0.00 99 1013.3
20260503211600 0 0.0 0.0 0.00 0.00 0.00 1013.2
20260503210056 0 0.0 0.0 0.00 0.00 0.00 1012.8
20260503204552 0 0.0 0.0 0.00 0.00 0.00 1012.8
20260503203047 0 0.0 0.0 0.00 0.00 0.00 1012.9
20260503201542 0 0.0 0.0 0.00 0.00 0.00 1012.7
20260503200038 0 0.0 0.0 0.00 0.00 0.00 1012.7
20260503194534 0 0.0 0.0 0.00 0.00 0.00 1012.6
20260503193039 0 0.0 0.0 0.00 0.00 0.00 1012.6
20260503191526 0 0.0 0.0 0.00 0.00 0.00 1012.7
20260503190027 0 0.0 0.0 0.00 0.00 0.00 1012.4
20260503184526 0 0.0 0.0 0.00 0.00 0.00 1012.3
20260503183019 0 0.0 0.0 0.00 0.00 0.00 1012.4
20260503181518 60 26 0.0 0.0 0.00 0.00 0.00 99 1012.5
20260503180020 61 38 0.0 0.0 0.00 0.00 0.00 99 1012.6
20260503174519 61 77 0.0 1.0 0.00 0.00 0.00 99 1012.7
20260503173023 61 94 0.0 2.0 0.00 0.00 0.00 99 1012.6
20260503171522 61 89 2.0 8.0 0.00 0.00 0.00 99 1012.6
20260503150106 61 319 1.0 2.0 0.00 0.00 0.00 98 1014.5
20260503081525 75 25 3.0 10.0 0.00 0.00 0.00 61 1012.0
20260503071524 74 354 2.0 6.0 0.00 0.00 0.00 64 1012.2
20260503054512 76 41 0.0 5.0 0.00 0.00 0.00 62 1013.0
20260503053011 76 351 3.0 8.0 0.00 0.00 0.00 60 1013.1
20260503051509 76 21 3.0 11.0 0.00 0.00 0.00 60 1013.2
20260503050010 76 336 6.0 11.0 0.00 0.00 0.00 61 1013.3
20260503044506 76 325 2.0 8.0 0.00 0.00 0.00 62 1013.5
20260503043007 75 7 2.0 10.0 0.00 0.00 0.00 63 1013.4
20260503041505 74 31 1.0 6.0 0.00 0.00 0.00 64 1013.4
20260503040005 75 46 3.0 8.0 0.00 0.00 0.00 63 1013.3
20260503034502 75 352 4.0 9.0 0.00 0.00 0.00 62 1013.5